Houston Hull, TX

2:51 AM CST on November 14, 2019 (GMT -0600)
Sugar Land Municipal-Hull

Weather History for KSGR - September, 2019

Change the Weather History Date:

Sunday, September 22, 2019

  Actual Average Record
Temperature  
Mean Temperature 82 °F -  
Max Temperature 91 °F 87 °F 99 °F (2005)
Min Temperature 75 °F 67 °F 50 °F (1983)
Cooling Degree Days 18    
Growing Degree Days 32 (Base 50)    
Moisture  
Dew Point 77 °F    
Average Humidity 83    
Maximum Humidity 97    
Minimum Humidity 65    
Precipitation  
Precipitation 0.16 in - - ()
Sea Level Pressure  
Sea Level Pressure 30.01 in    
Wind  
Wind Speed 7 mph (SE)    
Max Wind Speed 15 mph    
Max Gust Speed 21 mph    
Visibility 9 miles    
Events Rain    
Averages and records for this station are not official NWS values.
T = Trace of Precipitation, MM = Missing Value Source: NWS Daily Summary

Daily Weather History Graph

Daily Weather History Graph

Search for Another Location

Airport or City:

Astronomy

Sep. 22, 2019 Rise Set
Actual Time 7:10 AM CDT 7:19 PM CDT
Civil Twilight 6:47 AM CDT 7:43 PM CDT
Nautical Twilight 6:19 AM CDT 8:10 PM CDT
Astronomical Twilight 5:51 AM CDT 8:38 PM CDT
Moon 12:27 AM CDT (9/22) 2:48 PM CDT (9/22)
Length of Visible Light 12h 56m
Length of Day
12h 08m
Last Quarter, 44% of the Moon is Illuminated
Sep 22
Last Quarter
Sep 28
New
Oct 5
First Quarter
Oct 13
Full
Oct 21
Last Quarter

Hourly Weather History & Observations

Time (CDT) Temp. Heat Index Dew Point Humidity Pressure Visibility Wind Dir Wind Speed Gust Speed Precip Events Conditions
12:53 AM 79.0 °F - 75.9 °F 90% 30.02 in 10.0 mi ESE 5.8 mph - N/A   Clear
1:53 AM 79.0 °F - 75.9 °F 90% 30.01 in 10.0 mi East 3.5 mph - N/A   Clear
2:53 AM 78.1 °F - 75.9 °F 93% 30.01 in 10.0 mi East 4.6 mph - N/A   Clear
3:53 AM 78.1 °F - 75.9 °F 93% 30.01 in 10.0 mi ESE 4.6 mph - N/A   Clear
4:53 AM 78.1 °F - 75.9 °F 93% 30.00 in 10.0 mi ESE 5.8 mph - N/A   Clear
5:53 AM 78.1 °F - 75.9 °F 93% 30.01 in 10.0 mi East 4.6 mph - N/A   Clear
6:53 AM 75.9 °F - 75.0 °F 97% 30.03 in 10.0 mi Calm Calm - N/A   Clear
7:53 AM 78.1 °F - 77.0 °F 96% 30.04 in 10.0 mi East 3.5 mph - N/A   Clear
8:53 AM 82.0 °F 91.0 °F 78.1 °F 88% 30.04 in 10.0 mi SE 5.8 mph - N/A   Clear
9:53 AM 84.9 °F 97.5 °F 79.0 °F 82% 30.04 in 10.0 mi SSE 11.5 mph - N/A   Partly Cloudy
10:34 AM 87.1 °F 99.8 °F 78.1 °F 74% 30.04 in 10.0 mi SE 9.2 mph - N/A   Mostly Cloudy
10:53 AM 87.1 °F 98.8 °F 77.0 °F 72% 30.04 in 10.0 mi South 6.9 mph - N/A   Mostly Cloudy
11:11 AM 88.0 °F 100.2 °F 77.0 °F 70% 30.04 in 10.0 mi SE 10.4 mph - N/A   Scattered Clouds
11:53 AM 89.1 °F 100.2 °F 75.9 °F 65% 30.03 in 10.0 mi Variable 5.8 mph - N/A   Mostly Cloudy
12:53 PM 90.0 °F 104.5 °F 78.1 °F 68% 30.02 in 10.0 mi SSE 15.0 mph - N/A   Scattered Clouds
1:53 PM 90.0 °F 102.5 °F 77.0 °F 65% 29.99 in 10.0 mi SE 12.7 mph 20.7 mph N/A   Clear
2:27 PM 82.0 °F 91.0 °F 78.1 °F 88% 29.99 in 8.0 mi SSW 13.8 mph - 0.01 in Rain Light Rain
2:53 PM 84.9 °F 96.6 °F 78.1 °F 80% 29.98 in 4.0 mi East 3.5 mph - 0.08 in Rain Heavy Rain
3:53 PM 82.0 °F 88.6 °F 75.0 °F 79% 29.98 in 4.0 mi SSW 9.2 mph 18.4 mph 0.04 in Rain Rain
4:53 PM 89.1 °F 104.4 °F 79.0 °F 72% 29.96 in 4.0 mi SSE 12.7 mph - 0.04 in   Haze
5:53 PM 88.0 °F 100.2 °F 77.0 °F 70% 29.97 in 10.0 mi SE 10.4 mph - N/A   Clear
6:53 PM 86.0 °F 96.0 °F 75.9 °F 72% 29.98 in 10.0 mi SE 13.8 mph - N/A   Clear
7:53 PM 84.0 °F 93.7 °F 77.0 °F 79% 29.98 in 10.0 mi ESE 10.4 mph 19.6 mph N/A   Clear
8:53 PM 82.0 °F 91.0 °F 78.1 °F 88% 30.00 in 10.0 mi SE 11.5 mph - N/A   Clear
9:53 PM 82.0 °F 91.0 °F 78.1 °F 88% 30.02 in 10.0 mi SE 6.9 mph - N/A   Clear
10:53 PM 81.0 °F 88.6 °F 78.1 °F 91% 30.03 in 10.0 mi ESE 4.6 mph - N/A   Partly Cloudy
11:53 PM 80.1 °F 86.4 °F 78.1 °F 94% 30.02 in 10.0 mi ESE 5.8 mph - N/A   Clear